Location: Wiler
(46.4041°N, 7.7840°E)
Time: 01:06:08
(UTC+00:00)

CZ-4C R/B - Pass Details

Date: 09 April 2020
Orbit: 637 x 1365 km, 63.4° (Epoch: 30 May)

Event Time Altitude Azimuth Distance (km) Brightness Sun altitude
Rises 22:38:36 0° 317° (NW) 3,884 6.4 -34.4°
Reaches altitude 10° 22:41:13 10° 311° (NW) 3,023 5.6 -34.5°
Enters shadow 22:47:00 44° 265° (W) 1,665 3.6 -34.7°
